RH
38 36 35 36 39 39 35 33 25 19 20 22 24 25 26 32 37 41 40 40 42 41 43 48 53 50 45 45 42 41 41 42 38 33 35 42 49 52 52 60 72 81 84
39 35 35 40 39 42 39 39 30 25 23 24 26 30 34 36 36 38 37 38 39 41 50 67 61 48 46 49 49 52 51 49 45 41 37 41 51 58 53 58 66 74 76
44 33 37 44 43 44 43 39 30 26 25 26 29 31 33 35 38 40 42 42 48 58 55 51 49 44 45 52 58 58 56 50 50 45 41 43 51 66 61 59 62 65 73
46 40 40 49 46 46 49 38 30 26 27 27 29 31 33 37 39 39 41 46 45 47 47 42 45 48 48 53 64 68 64 61 58 52 47 50 54 68 67 66 67 71 69
49 45 49 52 53 44 39 37 29 29 28 28 32 39 40 41 43 45 47 48 50 54 48 53 49 50 54 63 74 72 65 60 58 58 59 59 60 70 74 69 72 75 70
53 48 57 51 50 40 39 35 33 32 35 37 40 40 41 47 49 47 50 56 58 57 63 56 57 60 65 71 77 72 64 67 63 62 72 78 72 72 76 70 72 81 79
55 58 62 48 48 42 40 35 33 35 40 43 42 42 44 43 48 51 53 57 65 71 71 68 66 66 68 71 72 65 63 62 68 84 83 82 78 74 76 68 69 78 81
57 62 66 51 49 41 38 37 36 38 43 46 46 46 46 46 53 58 63 63 63 67 78 78 70 69 70 73 68 63 61 74 85 86 86 85 82 78 76 66 63 73 82
56 65 55 53 45 43 40 41 43 46 51 47 52 58 50 57 64 73 68 59 65 76 78 78 76 67 65 67 64 60 64 80 90 90 91 89 84 81 76 65 58 73 79
66 62 54 48 44 41 43 45 49 49 55 57 61 56 57 56 55 63 59 56 59 76 78 74 68 57 59 64 65 65 72 84 88 86 86 86 89 85 77 60 54 62 76
64 54 51 47 45 50 51 52 54 53 65 69 64 61 61 59 53 59 66 59 69 79 79 72 58 56 61 66 65 65 78 90 86 92 88 89 91 84 69 57 52 64 78
62 59 53 56 55 58 60 64 66 66 88 91 81 78 65 51 46 59 58 64 72 81 69 64 56 60 65 66 62 60 79 92 87 92 93 93 95 87 69 58 58 60 71
79 62 66 68 61 71 65 70 80 77 76 87 81 68 46 42 51 57 58 71 78 71 65 65 62 62 66 62 53 58 76 90 86 93 94 97 96 90 77 67 64 62 68
86 75 76 66 70 77 77 78 69 65 64 54 52 54 48 49 56 60 64 68 69 66 61 62 60 60 63 57 47 57 72 82 84 95 96 96 96 93 83 77 78 75 73
80 75 74 68 69 69 60 48 48 60 53 39 44 49 52 54 59 61 65 66 70 68 60 57 56 53 49 44 46 56 66 72 88 92 95 94 96 96 90 86 85 88 88
66 67 62 54 51 47 44 52 54 53 50 52 54 55 53 55 61 64 69 72 76 71 58 56 53 49 44 42 43 53 60 66 79 93 95 93 96 96 98 90 95 89 91
55 59 57 52 49 44 53 54 63 66 60 58 56 55 55 58 60 61 63 68 78 69 57 52 47 46 46 45 45 52 57 64 69 80 91 92 95 91 91 95 98 95 97
60 50 45 43 47 51 53 57 60 58 56 55 55 55 59 60 63 69 72 74 72 63 51 46 49 51 47 44 48 50 57 59 65 71 79 82 89 93 91 92 96 96 97
53 48 47 51 53 53 54 61 60 60 58 56 60 64 67 68 70 72 75 73 67 61 61 58 50 46 46 48 47 47 51 53 54 58 66 69 74 81 87 92 96 93 98
52 48 50 49 53 58 62 60 57 57 58 64 66 67 65 67 72 71 77 77 78 74 67 59 52 46 44 43 41 40 45 43 45 47 48 53 56 65 75 82 93 95 95
59 56 51 51 57 63 59 56 59 62 63 68 65 60 55 51 53 55 60 65 66 65 56 47 43 39 37 34 28 25 27 29 30 30 33 36 32 36 49 68 77 87 92
67 64 67 65 69 59 59 63 68 65 64 67 65 55 50 49 47 43 42 42 47 52 51 48 43 36 33 26 18 13 12 14 16 16 17 18 20 22 28 38 53 69 78
76 73 69 69 66 65 66 65 64 61 60 59 56 56 53 47 40 33 36 38 41 37 32 28 24 21 18 14 12 11 12 13 14 13 14 13 14 15 17 21 30 40 55
75 69 61 63 65 69 70 66 56 53 53 53 51 48 43 40 37 34 31 32 32 28 21 18 17 14 11 11 11 11 11 12 12 12 12 11 11 10 10 12 13 17 23
66 60 58 59 63 68 67 56 47 47 47 43 43 41 38 35 32 31 29 28 23 19 17 16 16 16 14 13 13 13 13 13 13 13 12 11 11 11 10 11 11 11 11
60 62 62 64 65 66 61 57 50 46 42 41 39 38 37 36 35 32 29 24 19 18 16 17 17 17 18 17 17 17 17 17 17 16 15 13 12 11 11 12 14 13 14